{"data":{"norad_id":60574,"intl_designator":"2024-149DL","name":"GNOMES-5","alt_names":[],"object_type":"PAYLOAD","status":"ACTIVE","operator":null,"country":"US","launch_date":"2024-08-16","launch_site_code":"AFWTR","launch_vehicle":null,"mission":null,"orbit_class":"UNKNOWN","rcs_meters":null,"size_class":null,"mass_kg":null,"dimensions":null,"purposes":[],"wikipedia_slug":null,"has_3d_model":false,"image_url":null,"decayed_at":null,"tle_current":{"epoch":"2026-05-25T02:25:48.279072Z","epoch_age_seconds":66258,"freshness":"FRESH","line1":"1 60574U 24149DL  26145.10125323  .00004204  00000+0  33413-3 0  9993","line2":"2 60574  97.7013 223.3705 0006764 195.2255 164.8766 15.00968330 96698","mean_motion":15.0096833,"eccentricity":0.0006764,"inclination_deg":97.7013,"raan_deg":223.3705,"arg_perigee_deg":195.2255,"mean_anomaly_deg":164.8766,"bstar":0.00033413,"rev_number":9669,"period_min":95.938066861144,"perigee_km":559.21342644097,"apogee_km":568.60462630544,"semimajor_km":6942.0460263732,"source":"CELESTRAK","updated_at":"2026-05-25T13:38:02.155924Z"}}}